Flag for U.S.A. Weather past 2 weeks in Bloomington, Illinois, U.S.A.

Now
78 °F

Sunny.


Feels Like: 80 °F
Forecast: 64 / 88 °F
Wind: 14 mph from Southwest

Location: Bloomington / Normal

Current Time: Jul 22, 2014 at 10:27:22 AM

Latest Report: Jul 22, 2014 at 9:56 AM


Visibility: 10 mi

Pressure: 30.03 "Hg

Humidity: 72%

Dew point: 68 °F

Location of BloomingtonLocation

Historic Weather in Bloomington — Graph

°F

Bloomington temperature yesterday

Maximum temperature yesterday: 82 °F (at 3:56 PM)
Minimum temperature yesterday: 60 °F (at 5:56 AM)
Average temperature yesterday: 72 °F

Past Weeks' High & Low Weather Summary

 TemperatureHumidityPressure
High86 °F (Jul 7, 2:56 PM)94% (Jul 8, 3:04 AM)30.20 "Hg (Jul 8, 3:04 AM)
Low52 °F (Jul 16, 5:56 AM)40% (Jul 10, 3:56 PM)29.66 "Hg (Jul 7, 11:56 PM)
Average69 °F71%30.00 "Hg
* Reported Jul 7 8:56 AM — Jul 22 8:56 AM, Bloomington, Weather by CustomWeather, © 2014

Note: Actual official high and low records may vary slightly from our data, if they occured in-between our weather recording intervals... More about our weather records

Advertising

Bloomington weather history for previous 24 hours

 ConditionsComfort  
Time TempWeatherWind HumidityBarometerVisibility
8:56 AM
Jul 22
74 °FSunny.13 mph79%30.04 "Hg10 mi
7:56 AM69 °FSunny.10 mph84%30.06 "Hg10 mi
6:56 AM65 °FSunny.7 mph90%30.08 "Hg8 mi
5:56 AM64 °FClear.8 mph90%30.06 "Hg8 mi
4:56 AM64 °FClear.8 mph93%30.06 "Hg9 mi
3:56 AM65 °FClear.7 mph90%30.05 "Hg10 mi
2:56 AM65 °FClear.6 mph90%30.06 "Hg10 mi
1:56 AM65 °FClear.7 mph90%30.06 "Hg10 mi
12:56 AM66 °FClear.7 mph87%30.05 "Hg10 mi
11:56 PM
Jul 21
67 °FClear.5 mph87%30.05 "Hg10 mi
10:56 PM69 °FClear.8 mph87%30.06 "Hg10 mi
9:56 PM71 °FClear.8 mph81%30.06 "Hg10 mi
8:56 PM73 °FSunny.7 mph82%30.06 "Hg10 mi
7:56 PM75 °FSunny.7 mph77%30.06 "Hg10 mi
6:56 PM79 °FSunny.9 mph67%30.06 "Hg10 mi
5:56 PM80 °FSunny.10 mph67%30.05 "Hg10 mi
4:56 PM81 °FPassing clouds.12 mph62%30.05 "Hg10 mi
3:56 PM82 °FPassing clouds.14 mph63%30.06 "Hg10 mi
2:56 PM81 °FScattered clouds.10 mph62%30.07 "Hg10 mi
1:56 PM81 °FScattered clouds.13 mph65%30.08 "Hg10 mi
12:56 PM80 °FSunny.12 mph62%30.09 "Hg10 mi
11:56 AM78 °FSunny.9 mph64%30.10 "Hg10 mi
10:56 AM77 °FSunny.8 mph64%30.10 "Hg10 mi
Weather by CustomWeather, © 2014

See weather overviewHow to use our weather pages